Location: Im Fang
(46.6019°N, 7.2397°E)
Time: 19:26:13
(UTC+00:00)

Meteor 1-27 Rocket - Pass Details

Date: 08 December 2019
Orbit: 830 x 909 km, 81.3° (Epoch: 26 January)

Event Time Altitude Azimuth Distance (km) Brightness Sun altitude
Exits shadow 04:58:31 37° 291° (WNW) 1,382 4.3 -20.3°
Maximum altitude 04:59:28 40° 269° (W) 1,324 4.2 -20.1°
Drops below altitude 10° 05:04:53 10° 202° (SSW) 2,578 6.1 -19.2°
Sets 05:07:28 0° 195° (SSW) 3,507 6.9 -18.8°
